This demonstration page uses our WeatherBlox Daily Observations layout. Learn more.

Left ArrowRight Arrow

39.08367, -84.50855

Hourly Observations for March 27, 2015

Temp ( °F °C ) Dew Point ( °F °C ) Humidity (%) Winds ( mph kmh ) Pressure ( in mb ) Visibility ( mi km ) Precip ( " mm )
12:53 am 00:53 Cloudy 40 4.4 33 0.6 77 77 NNW 7 11 30 1016 10 16.0934 N/A
1:53 am 01:53 Cloudy 38 3.3 29 -1.7 70 70 N 8 13 30 1016 10 16.0934 N/A
2:53 am 02:53 Clear 36 2.2 27 -2.8 70 70 N 7 11 29.98 1015 10 16.0934 N/A
3:53 am 03:53 Mostly Clear 34 1.1 23 -5 64 64 N 8 13 29.99 1016 10 16.0934 N/A
4:53 am 04:53 Clear 32 undefined 25 -3.9 75 75 N 7 11 29.98 1015 10 16.0934 N/A
5:53 am 05:53 Mostly Cloudy 32 undefined 26 -3.3 79 79 N N/A 29.98 1015 10 16.0934 N/A
6:53 am 06:53 Mostly Cloudy 31 -0.6 24 -4.4 76 76 N 8 13 30 1016 10 16.0934 N/A
7:53 am 07:53 Sunny 32 undefined 24 -4.4 73 73 N 7 11 30.02 1017 10 16.0934 N/A
8:53 am 08:53 Sunny 34 1.1 24 -4.4 67 67 N 8 13 30.02 1017 10 16.0934 N/A
9:53 am 09:53 Mostly Sunny 36 2.2 23 -5 59 59 NNW 10 17 30.02 1017 10 16.0934 N/A
10:53 am 10:53 Mostly Cloudy 37 2.8 23 -5 57 57 N 12 19 30.03 1017 10 16.0934 N/A
11:53 am 11:53 Cloudy 36 2.2 23 -5 59 59 N 12 19 30.04 1017 10 16.0934 N/A
12:53 pm 12:53 Cloudy 36 2.2 24 -4.4 62 62 N 9 15 30.04 1017 10 16.0934 N/A
1:53 pm 13:53 Cloudy 34 1.1 23 -5 64 64 N 12 19 30.05 1018 10 16.0934 N/A
2:53 pm 14:53 Cloudy 35 1.7 22 -5.6 59 59 N 14 22 30.04 1017 10 16.0934 N/A
3:53 pm 15:53 Cloudy 35 1.7 21 -6.1 57 57 N 10 17 30.04 1017 10 16.0934 N/A
4:53 pm 16:53 Cloudy 35 1.7 17 -8.3 48 48 NNW 15 24 30.04 1017 10 16.0934 N/A
5:53 pm 17:53 Cloudy 33 0.6 16 -8.9 49 49 NNW 10 17 30.06 1018 10 16.0934 N/A
6:53 pm 18:53 Cloudy 32 undefined 14 -10 47 47 NNW 12 19 30.08 1019 10 16.0934 N/A
7:53 pm 19:53 Cloudy 31 -0.6 14 -10 49 49 NNW 9 15 30.09 1019 10 16.0934 N/A
8:53 pm 20:53 Cloudy 30 -1.1 14 -10 51 51 NNW 7 11 30.11 1020 10 16.0934 N/A
9:53 pm 21:53 Cloudy 29 -1.7 19 -7.2 66 66 N 9 15 30.13 1020 10 16.0934 N/A
10:53 pm 22:53 Cloudy 29 -1.7 15 -9.4 56 56 NNW 13 20 30.14 1021 10 16.0934 N/A
11:53 pm 23:53 Cloudy 28 -2.2 14 -10 56 56 N 7 11 30.15 1021 10 16.0934 N/A

Powered by AerisWeather